Creek Data

    Home     View Charts     View Raw Data     Messages

ID Distance Battery Voltage Battery Current Internal Temp Internal Humidity External Temp Solar Input rssi snr Time Stamp Record
68260 14.7 3.53 -5 47 53 49 0 -74 9 03/07/2026 10:45 PM 51125
68259 14.7 3.71 -5 48 53 48 0 -74 9 03/07/2026 10:30 PM 51124
68258 14.7 3.55 -5 48 54 50 0 -74 8 03/07/2026 10:15 PM 51123
68257 14.8 3.53 -5 49 54 50 0.1 -75 9 03/07/2026 10:00 PM 51122
68256 14.8 3.71 -5 49 54 51 0 -73 9 03/07/2026 09:45 PM 51121
68255 14.7 3.55 -5 50 54 51 0 -78 9 03/07/2026 09:30 PM 51120
68254 14.7 3.72 -5 50 55 51 0 -78 8 03/07/2026 09:15 PM 51119
68253 14.7 3.54 -5 51 55 51 0 -78 8 03/07/2026 09:00 PM 51118
68252 14.8 3.56 -5 52 55 52 0 -78 7 03/07/2026 08:45 PM 51117
68251 14.8 3.55 -5 54 55 53 0 -78 8 03/07/2026 08:30 PM 51116
68250 14.7 3.72 -5 55 55 54 0 -77 7 03/07/2026 08:15 PM 51115
68249 14.8 3.72 -5 57 55 56 0 -78 8 03/07/2026 08:00 PM 51114
68248 14.8 3.73 -5 58 56 59 0.1 -78 8 03/07/2026 07:45 PM 51113
68247 14.8 3.73 -5 60 55 58 0 -78 9 03/07/2026 07:30 PM 51112
68246 14.8 3.73 -5 61 55 64 0 -78 7 03/07/2026 07:15 PM 51111
68245 14.8 3.59 -5 62 56 63 0 -78 7 03/07/2026 07:00 PM 51110
68244 14.7 3.59 -5 63 56 65 0 -78 7 03/07/2026 06:45 PM 51109
68243 14.7 3.55 -5 64 57 64 0.1 -78 7 03/07/2026 06:30 PM 51108
68242 14.8 3.73 -7 66 57 65 1.7 -77 8 03/07/2026 06:15 PM 51107
68241 14.8 3.60 0 68 57 66 4.5 -77 9 03/07/2026 06:00 PM 51106
68240 14.8 3.70 -15 71 55 68 4.5 -77 8 03/07/2026 05:45 PM 51105
68239 14.8 3.87 0 72 55 69 4.5 -76 8 03/07/2026 05:30 PM 51104
68238 14.8 3.72 0 75 54 71 5.1 -76 8 03/07/2026 05:15 PM 51103
68237 14.8 3.72 0 75 54 72 5.1 -77 7 03/07/2026 05:00 PM 51102
68236 14.8 3.73 5 76 54 72 5.1 -76 7 03/07/2026 04:45 PM 51101